Miscellaneous Local Product
Issued by NWS North Platte, NE

Home | Current Version | Previous Version | Graphics & Text | Print | Product List | Glossary On
Versions: 1 2 3 4 5 6 7 8 9 10 11 12 13 14 15 16 17 18 19 20 21 22 23 24 25 26 27 28 29 30 31 32 33 34 35 36 37 38 39 40 41 42 43 44 45 46 47 48 49 50
000
AXUS43 KLBF 192310
MISLBF


WESTERN AND NORTH CENTRAL NEBRASKA HOURLY WEATHER ROUNDUP
NATIONAL WEATHER SERVICE NORTH PLATTE NE
600 PM CDT FRI SEP 19 2014

***STATIONS NOT REPORTING VARIABLES SUCH AS SKY/WEATHER OR
PRESSURE ARE PROVIDED BY THE NEBRASKA DEPARTMENT OF
ROADS...RAWS...AND APRS NETWORKS...AND ARE NOT UNDER
NATIONAL WEATHER SERVICE QUALITY CONTROL***

...OBSERVATIONS IN AND NEAR THE EASTERN PANHANDLE OF NEBRASKA...

CITY           SKY/WX    TMP DP  RH WIND       PRES   REMARKS
PINE RIDGE     SUNNY     84  51  31 W8        29.83R
CHADRON        MOSUNNY   87  49  26 N10       29.83S
ALLIANCE       MOSUNNY   86  47  25 NW9       29.85F
SIDNEY         MOSUNNY   86  46  24 N9        29.90R
WHITECLAY        N/A     83  51  32 W6          N/A
RUSHVILLE        N/A     90  38  15 NW15        N/A
CRESCENT LAKE    N/A     87  50  27 NE6         N/A
LISCO            N/A     92  36  13 W10         N/A
BIG SPRINGS      N/A     90  51  26 N6          N/A
$$

...OBSERVATIONS IN NORTH CENTRAL NEBRASKA...

CITY           SKY/WX    TMP DP  RH WIND       PRES   REMARKS
VALENTINE      SUNNY     88  54  31 VRB3      29.79S
THEDFORD       SUNNY     88  58  36 N8        29.81R
AINSWORTH      SUNNY     84  57  38 N5        29.80R
O`NEILL        SUNNY     86  64  46 NE5       29.76R
ORD            SUNNY     88  63  43 S20G25    29.75S
BROKEN BOW     SUNNY     92  56  29 S16G26    29.78S HX  90
SPRINGVIEW       N/A     88  59  37 CALM        N/A
ROSE             N/A     91  62  38 N6          N/A  HX  91
NEWPORT          N/A     88  58  35 SW5         N/A
COMSTOCK         N/A     93  64  38 S8          N/A  HX  95
CHAMBERS         N/A     88  60  39 N6          N/A
$$

...OBSERVATIONS IN SOUTHWEST NEBRASKA AND FAR NORTHEAST COLORADO...

CITY           SKY/WX    TMP DP  RH WIND       PRES   REMARKS
WRAY           FAIR      92  45  19 SE12      29.85S
HOLYOKE        FAIR      95  46  18 SE5       29.85S HX  91
IMPERIAL       SUNNY     91  51  25 S13       29.83R
OGALLALA       SUNNY     92  51  25 N6        29.82F
NORTH PLATTE   SUNNY     90  57  32 SW10      29.79R
MCCOOK         MOSUNNY   91  58  32 S18G24    29.82R HX  90
LEXINGTON      SUNNY     90  56  32 S14G22    29.80S
PAXTON           N/A     93  54  26 S7          N/A  HX  90
SUTHERLAND       N/A     98  44  15 W5          N/A  HX  93
BRADY            N/A     89  61  38 CALM        N/A
GOTHENBURG       N/A     91  53  27 S12         N/A
CALLAWAY         N/A     90  60  36 SW16        N/A
$$

...SOME WEATHER OBSERVATIONS FROM AROUND THE REGION...

CITY           SKY/WX    TMP DP  RH WIND       PRES   REMARKS
DENVER         MOSUNNY   83  43  24 E5        29.96S
LARAMIE        MOSUNNY   75  41  29 NW16G25   30.12R
CHEYENNE       PTSUNNY   82  40  22 NW16G25   30.01S
SCOTTSBLUFF    SUNNY     90  48  23 VRB3      29.86F
RAPID CITY     MOSUNNY   80  49  33 N10       29.85R
PIERRE         SUNNY     85  54  34 NW14      29.71R
WINNER         FAIR      88  54  31 NW10      29.75R
SIOUX FALLS    MOSUNNY   87  65  47 W6        29.70R
OMAHA          MOSUNNY   85  68  56 S20G29    29.78F
GRAND ISLAND   SUNNY     88  62  41 S18G29    29.80F
KANSAS CITY    MOSUNNY   78  69  73 S10       29.94F
WICHITA        MOSUNNY   88  64  44 S20       29.91S
HAYS           SUNNY     90  61  37 S21G29    29.86F
LIBERAL        MOSUNNY   88  57  35 S21       29.93S
GOODLAND       SUNNY     87  57  35 S18G25    29.88S
$$



USA.gov is the U.S. government's official web portal to all federal, state and local government web resources and services.